When you browse on this site, cookies collect data to enhance your experience and personalize the content and advertising you see.
Visit our Privacy Policy to learn more. By continuing to use the site, you agree to this use of cookies and data.
  • In Portugal
  • List of Countries
  • For 7 days
  • Water Temperature
  • Satellite Maps
  • Weather Map
  • Weather Widgets
  • user-avatar
    Login

    Hourly Weather Abomey

    Today, 26 May, Sunday

    Time Temperature Precipitation Wind Pressure Humidity
    00:00 +28°C° 0 mm 2 mps 739 mmHg 81%
    01:00 +27°C° 0 mm 2 mps 739 mmHg 83%
    02:00 +27°C° 0 mm 2 mps 738 mmHg 84%
    03:00 +27°C° 0 mm 1 mps 738 mmHg 86%
    04:00 +27°C° 0 mm 2 mps 738 mmHg 86%
    05:00 +27°C° 0 mm 2 mps 738 mmHg 87%
    06:00 +26°C° 0 mm 2 mps 739 mmHg 87%
    07:00 +28°C° 0 mm 2 mps 739 mmHg 78%
    08:00 +30°C° 0 mm 2 mps 739 mmHg 69%
    09:00 +32°C° 0 mm 2 mps 739 mmHg 61%
    10:00 +35°C° 0 mm 2 mps 739 mmHg 53%
    11:00 +37°C° 0 mm 2 mps 739 mmHg 46%
    12:00 +39°C° 0 mm 1 mps 738 mmHg 39%
    13:00 +38°C° 0 mm 2 mps 738 mmHg 39%
    14:00 +38°C° 0 mm 2 mps 737 mmHg 39%
    15:00 +38°C° 0 mm 2 mps 736 mmHg 40%
    16:00 +36°C° 0 mm 3 mps 736 mmHg 44%
    17:00 +35°C° 0 mm 3 mps 736 mmHg 49%
    18:00 +34°C° 0 mm 4 mps 736 mmHg 53%
    19:00 +33°C° 0.3 mm 4 mps 737 mmHg 62%
    20:00 +30°C° 0.3 mm 4 mps 737 mmHg 70%
    21:00 +28°C° 0.3 mm 3 mps 738 mmHg 79%
    22:00 +28°C° 0 mm 3 mps 738 mmHg 80%
    23:00 +28°C° 0 mm 4 mps 738 mmHg 80%

    Tomorrow, 27 May, Monday

    Time Temperature Precipitation Wind Pressure Humidity
    00:00 +28°C° 0 mm 4 mps 738 mmHg 81%
    01:00 +28°C° 0 mm 3 mps 738 mmHg 82%
    02:00 +28°C° 0 mm 2 mps 737 mmHg 82%
    03:00 +27°C° 0 mm 2 mps 737 mmHg 83%
    04:00 +27°C° 0 mm 2 mps 738 mmHg 84%
    05:00 +27°C° 0 mm 2 mps 738 mmHg 85%
    06:00 +27°C° 0 mm 2 mps 738 mmHg 87%
    07:00 +28°C° 1.4 mm 3 mps 739 mmHg 82%
    08:00 +29°C° 1.4 mm 3 mps 739 mmHg 77%
    09:00 +30°C° 1.4 mm 4 mps 740 mmHg 73%
    10:00 +30°C° 1 mm 4 mps 739 mmHg 70%
    11:00 +31°C° 1 mm 3 mps 739 mmHg 67%
    12:00 +31°C° 1 mm 3 mps 739 mmHg 65%
    13:00 +33°C° 0 mm 3 mps 738 mmHg 60%
    14:00 +34°C° 0 mm 3 mps 737 mmHg 55%
    15:00 +35°C° 0 mm 2 mps 737 mmHg 50%
    16:00 +34°C° 0 mm 3 mps 737 mmHg 55%
    17:00 +33°C° 0 mm 3 mps 737 mmHg 60%
    18:00 +30°C° 0 mm 3 mps 737 mmHg 64%
    19:00 +30°C° 0 mm 3 mps 738 mmHg 69%
    20:00 +29°C° 0 mm 3 mps 738 mmHg 73%
    21:00 +28°C° 0 mm 3 mps 739 mmHg 78%
    22:00 +28°C° 0 mm 3 mps 739 mmHg 79%
    23:00 +28°C° 0 mm 3 mps 738 mmHg 81%

    Day after tomorrow, 28 May, Tuesday

    Time Temperature Precipitation Wind Pressure Humidity
    00:00 +27°C° 0 mm 3 mps 738 mmHg 82%
    01:00 +27°C° 0 mm 3 mps 738 mmHg 83%
    02:00 +27°C° 0 mm 3 mps 738 mmHg 84%
    03:00 +27°C° 0 mm 3 mps 737 mmHg 85%
    04:00 +27°C° 0 mm 3 mps 738 mmHg 85%
    05:00 +27°C° 0 mm 2 mps 738 mmHg 85%
    06:00 +27°C° 0 mm 2 mps 738 mmHg 86%
    07:00 +28°C° 0 mm 2 mps 739 mmHg 79%
    08:00 +29°C° 0 mm 3 mps 739 mmHg 73%
    09:00 +31°C° 0 mm 3 mps 740 mmHg 66%
    10:00 +33°C° 0 mm 3 mps 739 mmHg 58%
    11:00 +35°C° 0 mm 3 mps 739 mmHg 50%
    12:00 +37°C° 0 mm 3 mps 739 mmHg 42%
    13:00 +37°C° 0 mm 3 mps 738 mmHg 42%
    14:00 +37°C° 0 mm 3 mps 737 mmHg 43%
    15:00 +37°C° 0 mm 4 mps 737 mmHg 43%
    16:00 +35°C° 0 mm 4 mps 737 mmHg 49%
    17:00 +34°C° 0 mm 4 mps 737 mmHg 54%
    18:00 +33°C° 0 mm 3 mps 737 mmHg 60%
    19:00 +31°C° 0 mm 3 mps 738 mmHg 64%
    20:00 +30°C° 0 mm 3 mps 738 mmHg 69%
    21:00 +29°C° 0 mm 3 mps 739 mmHg 73%
    22:00 +28°C° 0 mm 3 mps 739 mmHg 74%
    23:00 +28°C° 0 mm 3 mps 739 mmHg 75%

    29 May, Wednesday

    Time Temperature Precipitation Wind Pressure Humidity
    00:00 +28°C° 0 mm 3 mps 739 mmHg 76%
    01:00 +28°C° 0 mm 3 mps 738 mmHg 78%
    02:00 +27°C° 0 mm 3 mps 738 mmHg 80%
    03:00 +27°C° 0 mm 2 mps 737 mmHg 81%
    04:00 +27°C° 0 mm 2 mps 738 mmHg 83%
    05:00 +27°C° 0 mm 2 mps 738 mmHg 84%
    06:00 +27°C° 0 mm 2 mps 738 mmHg 85%
    07:00 +28°C° 0 mm 2 mps 739 mmHg 78%
    08:00 +30°C° 0 mm 2 mps 739 mmHg 71%
    09:00 +31°C° 0 mm 2 mps 740 mmHg 64%
    10:00 +34°C° 0 mm 2 mps 739 mmHg 57%
    11:00 +35°C° 0 mm 2 mps 739 mmHg 50%
    12:00 +37°C° 0 mm 2 mps 738 mmHg 43%
    13:00 +38°C° 0 mm 2 mps 737 mmHg 41%
    14:00 +38°C° 0 mm 2 mps 736 mmHg 39%
    15:00 +39°C° 0 mm 2 mps 736 mmHg 37%
    16:00 +37°C° 0 mm 3 mps 736 mmHg 43%
    17:00 +36°C° 0 mm 4 mps 736 mmHg 48%
    18:00 +34°C° 0 mm 4 mps 736 mmHg 54%
    19:00 +33°C° 0 mm 4 mps 737 mmHg 60%
    20:00 +30°C° 0 mm 4 mps 738 mmHg 67%
    21:00 +29°C° 0 mm 4 mps 738 mmHg 74%
    22:00 +29°C° 0 mm 4 mps 738 mmHg 76%
    23:00 +28°C° 0 mm 3 mps 738 mmHg 79%

    30 May, Thursday

    Time Temperature Precipitation Wind Pressure Humidity
    00:00 +28°C° 0 mm 3 mps 738 mmHg 81%
    01:00 +28°C° 0 mm 3 mps 737 mmHg 82%
    02:00 +28°C° 0 mm 3 mps 737 mmHg 83%
    03:00 +28°C° 0 mm 3 mps 737 mmHg 84%
    04:00 +28°C° 0 mm 3 mps 737 mmHg 84%
    05:00 +28°C° 0 mm 2 mps 737 mmHg 85%
    06:00 +28°C° 0 mm 2 mps 738 mmHg 85%
    07:00 +28°C° 0.2 mm 2 mps 738 mmHg 81%
    08:00 +29°C° 0.2 mm 3 mps 739 mmHg 77%
    09:00 +30°C° 0.2 mm 3 mps 739 mmHg 73%
    10:00 +31°C° 1 mm 3 mps 739 mmHg 70%
    11:00 +31°C° 1 mm 3 mps 739 mmHg 68%
    12:00 +33°C° 1 mm 3 mps 738 mmHg 65%
    13:00 +33°C° 0 mm 3 mps 737 mmHg 63%
    14:00 +34°C° 0 mm 4 mps 737 mmHg 61%
    15:00 +34°C° 0 mm 4 mps 736 mmHg 59%
    16:00 +33°C° 0 mm 4 mps 737 mmHg 63%
    17:00 +31°C° 0 mm 3 mps 737 mmHg 67%
    18:00 +30°C° 0 mm 3 mps 738 mmHg 71%
    19:00 +29°C° 0 mm 3 mps 738 mmHg 73%
    20:00 +29°C° 0 mm 4 mps 738 mmHg 76%
    21:00 +28°C° 0 mm 4 mps 739 mmHg 79%
    22:00 +28°C° 0 mm 3 mps 738 mmHg 80%
    23:00 +27°C° 0 mm 2 mps 738 mmHg 82%

    31 May, Friday

    Time Temperature Precipitation Wind Pressure Humidity
    00:00 +27°C° 0 mm 1 mps 738 mmHg 84%
    01:00 +27°C° 0 mm 1 mps 738 mmHg 85%
    02:00 +27°C° 0 mm 2 mps 737 mmHg 87%
    03:00 +26°C° 0 mm 2 mps 737 mmHg 88%
    04:00 +26°C° 0 mm 1 mps 737 mmHg 89%
    05:00 +26°C° 0 mm 1 mps 738 mmHg 89%
    06:00 +26°C° 0 mm 1 mps 739 mmHg 90%
    07:00 +27°C° 0.6 mm 1 mps 739 mmHg 88%
    08:00 +27°C° 0.6 mm 1 mps 739 mmHg 86%
    09:00 +28°C° 0.6 mm 1 mps 739 mmHg 84%
    10:00 +27°C° 1 mm 2 mps 739 mmHg 86%
    11:00 +27°C° 1 mm 2 mps 739 mmHg 87%
    12:00 +27°C° 1 mm 2 mps 738 mmHg 88%
    13:00 +27°C° 0.7 mm 2 mps 738 mmHg 88%
    14:00 +27°C° 0.7 mm 2 mps 737 mmHg 88%
    15:00 +27°C° 0.7 mm 3 mps 737 mmHg 89%
    16:00 +27°C° 0.1 mm 2 mps 737 mmHg 90%
    17:00 +26°C° 0.1 mm 2 mps 738 mmHg 90%
    18:00 +26°C° 0.1 mm 2 mps 738 mmHg 91%
    19:00 +26°C° 0.2 mm 2 mps 738 mmHg 92%
    20:00 +26°C° 0.2 mm 2 mps 739 mmHg 93%
    21:00 +25°C° 0.2 mm 2 mps 739 mmHg 94%
    22:00 +25°C° 0 mm 2 mps 739 mmHg 95%
    23:00 +25°C° 0 mm 1 mps 738 mmHg 95%
    Show more